Location: Chandolas
(44.4033°N, 4.2533°E)
Time: 13:42:49
(UTC+00:00)

Cosmos 1328 Rocket - Pass Details

Date: 15 November 2019
Orbit: 600 x 628 km, 82.5° (Epoch: 09 December)

Event Time Altitude Azimuth Distance (km) Brightness Sun altitude
Rises 05:30:27 0° 348° (NNW) 2,880 6.7 -12.3°
Reaches altitude 10° 05:32:41 10° 346° (NNW) 1,967 5.9 -11.9°
Maximum altitude 05:37:00 67° 264° (W) 659 3.5 -11.1°
Drops below altitude 10° 05:41:15 10° 183° (S) 1,940 6.3 -10.4°
Sets 05:43:27 0° 180° (S) 2,836 7.2 -10.0°
